THOR ABLESTAR DEB, 4005

Orbit data source: Space-Track

THOR ABLESTAR DEB, 4005 is space debris in LEO originally from a launch on Thu, 29 Jun 1961 UTC launched from the Air Force Eastern Test Range (AFETR). Debris objects in space refer to the collection of defunct objects orbiting the Earth. Examples of debris include non-operational satellites, rocket bodies, and fragments generated from explosions, collisions, or faulty payload assembly.

Loading next visibility...
Identifier
4005, 1961-015JK
Orbit
LEO
Country
Flag of USUS
Related business
Manufacturer
Unknown
Mission
Spacecraft
Bus & Motor
Unknown
Mass
Unknown
Launch date (UTC)
1961-06-29 (65 years ago)
Launch vehicle
Unknown
Launch site
Air Force Eastern Test Range (AFETR)
Object type
Payload
Rocket body
Debris
Shape & HBR
Unknown shape, 0.1 m
Radar Cross Section
Medium (>0.1 m² and <1 m²)

Expand to show TLE details & history
Last TLE update: 3 days ago

TLE from 3 days ago
0 THOR ABLESTAR DEB
1 04005U 61015JK  26171.01192113  .00000227  00000-0  28751-3 0  9994
2 04005  66.7493  16.3353 0098052 284.3362 227.5637 13.78442405888182
Epoch: 2026-06-20T00:17Z
TLE epoch observation values (Epoch: 2026-06-20T00:17:09.985Z)
Latitude
26.4307°
Longitude
-88.45574°
Altitude
1,020.786 km
Speed
7.32 km/s
True Right ascension
12h 16m 16s
True Declination
26° 17' 56"
Sunlit
Object was in daylight at epoch
Visualization orbit readout
Latitude
Unknown
Longitude
Unknown
Altitude
Unknown
Speed
Unknown
Apparent Right ascension
Unknown
Apparent Declination
Unknown
Sunlit
N/A
Visualization observer readout
Local Sidereal Time
07:08:51
Azimuth
Unknown
Elevation
Unknown
Doppler factor
Unknown
Orbital elements
Apogee altitude
1,039.854 km
Perigee altitude
895.796 km
Semi-major axis
7,345.962 km
Eccentricity
0.00981
Inclination
66.7493°
RAAN
16.3353°
Arg. of periapsis
284.3362°
True anomaly
226.74129°
Mean anomaly
227.5637°
Eccentric anomaly
227.15181°
Mean motion
3.44723 °/min
Orbital period
104.43 mins
BSTAR
0.00028751

Documentation

Showing up to 5 results
|